�������l�o���
Date,Time,MP-1(��Sv/h),MP-2(��Sv/h),MP-3(��Sv/h),MP-4(��Sv/h),MP-5(��Sv/h),MP-6(��Sv/h),MP-7(��Sv/h),MP-8(��Sv/h),����,����(m/s),���J
2019/06/19,00:00,0.744,1.063,0.728,1.329,0.965,0.433,0.745,0.708,��쐼,7.2,��
2019/06/19,00:10,0.743,1.066,0.730,1.330,0.965,0.434,0.747,0.710,��쐼,6.1,��
2019/06/19,00:20,0.743,1.065,0.728,1.332,0.962,0.433,0.748,0.708,��,6.3,��
2019/06/19,00:30,0.744,1.065,0.730,1.330,0.963,0.432,0.748,0.708,��,6.6,�L
2019/06/19,00:40,0.743,1.065,0.727,1.331,0.965,0.434,0.747,0.709,��,7.6,��
2019/06/19,00:50,0.743,1.065,0.729,1.328,0.962,0.434,0.748,0.709,��,6.7,�L
2019/06/19,01:00,0.742,1.064,0.730,1.330,0.963,0.432,0.748,0.707,��,4.9,�L
2019/06/19,01:10,0.742,1.064,0.729,1.328,0.963,0.433,0.749,0.708,��쐼,5.0,�L
2019/06/19,01:20,0.745,1.065,0.729,1.330,0.965,0.432,0.749,0.708,��,6.5,�L
2019/06/19,01:30,0.742,1.064,0.727,1.330,0.962,0.436,0.748,0.709,��쐼,6.1,��
2019/06/19,01:40,0.740,1.066,0.729,1.329,0.964,0.432,0.747,0.708,��쐼,5.2,�L
2019/06/19,01:50,0.742,1.062,0.727,1.329,0.964,0.433,0.748,0.709,��쐼,4.6,�L
2019/06/19,02:00,0.744,1.063,0.730,1.330,0.964,0.433,0.748,0.710,��쐼,3.6,�L
2019/06/19,02:10,0.743,1.064,0.730,1.331,0.964,0.433,0.746,0.709,��쐼,4.0,�L
2019/06/19,02:20,0.743,1.063,0.729,1.326,0.965,0.432,0.748,0.709,��,4.2,�L
2019/06/19,02:30,0.744,1.064,0.727,1.330,0.965,0.432,0.748,0.710,��쐼,4.6,��
2019/06/19,02:40,0.745,1.062,0.729,1.329,0.965,0.434,0.748,0.707,��쐼,4.5,�L
2019/06/19,02:50,0.744,1.064,0.728,1.329,0.963,0.433,0.747,0.706,��쐼,3.4,�L
2019/06/19,03:00,0.745,1.062,0.729,1.326,0.964,0.433,0.748,0.708,��쐼,3.8,�L
2019/06/19,03:10,0.747,1.066,0.728,1.328,0.966,0.433,0.747,0.709,��쐼,3.6,�L
2019/06/19,03:20,0.745,1.064,0.728,1.330,0.967,0.434,0.749,0.710,��,4.1,�L
2019/06/19,03:30,0.744,1.066,0.729,1.331,0.965,0.432,0.747,0.707,��,4.2,�L
2019/06/19,03:40,0.744,1.062,0.733,1.328,0.963,0.435,0.747,0.709,��쐼,4.9,��
2019/06/19,03:50,0.743,1.064,0.729,1.331,0.967,0.432,0.748,0.710,��,5.7,��
2019/06/19,04:00,0.745,1.065,0.727,1.330,0.964,0.432,0.749,0.709,��,5.3,��
2019/06/19,04:10,0.744,1.064,0.729,1.329,0.966,0.433,0.749,0.709,��,5.1,��
2019/06/19,04:20,0.745,1.064,0.728,1.328,0.964,0.433,0.747,0.709,��쐼,4.2,��
2019/06/19,04:30,0.745,1.066,0.729,1.329,0.966,0.433,0.749,0.709,��,4.4,��
2019/06/19,04:40,0.748,1.060,0.729,1.330,0.965,0.434,0.749,0.708,��쐼,4.8,��
2019/06/19,04:50,0.746,1.066,0.728,1.327,0.967,0.432,0.749,0.710,��쐼,4.3,��
2019/06/19,05:00,0.745,1.064,0.730,1.331,0.965,0.434,0.750,0.709,�쐼,3.5,��
2019/06/19,05:10,0.745,1.063,0.729,1.330,0.965,0.433,0.749,0.709,��쐼,4.7,��
2019/06/19,05:20,0.747,1.062,0.729,1.329,0.965,0.433,0.747,0.710,��,5.1,��
2019/06/19,05:30,0.744,1.064,0.729,1.332,0.967,0.431,0.749,0.708,��,4.3,��
2019/06/19,05:40,0.743,1.065,0.728,1.331,0.966,0.433,0.748,0.709,��쐼,4.0,��
2019/06/19,05:50,0.745,1.066,0.728,1.328,0.967,0.432,0.749,0.710,�쐼,3.0,��
2019/06/19,06:00,0.745,1.064,0.729,1.329,0.966,0.432,0.748,0.710,�쐼,2.2,��
2019/06/19,06:10,0.744,1.064,0.729,1.330,0.963,0.434,0.749,0.710,��,2.3,��
2019/06/19,06:20,0.745,1.065,0.730,1.330,0.963,0.432,0.749,0.709,��,0.9,��
2019/06/19,06:30,0.745,1.064,0.729,1.330,0.966,0.433,0.749,0.708,�k�k��,2.0,��
2019/06/19,06:40,0.746,1.064,0.727,1.329,0.969,0.433,0.748,0.710,�k�k��,3.6,��
2019/06/19,06:50,0.747,1.066,0.731,1.330,0.965,0.434,0.749,0.710,�k�k��,3.8,��
2019/06/19,07:00,0.745,1.065,0.731,1.331,0.967,0.435,0.750,0.711,�k�k��,3.5,��
2019/06/19,07:10,0.746,1.064,0.729,1.332,0.966,0.435,0.747,0.711,�k,3.3,��
2019/06/19,07:20,0.747,1.063,0.730,1.332,0.967,0.432,0.750,0.711,�k�k��,3.9,��
2019/06/19,07:30,0.747,1.064,0.730,1.328,0.966,0.432,0.748,0.709,�k�k��,3.8,��
2019/06/19,07:40,0.746,1.061,0.729,1.332,0.968,0.431,0.747,0.709,�k,4.9,��
2019/06/19,07:50,0.746,1.062,0.730,1.331,0.967,0.432,0.749,0.709,�k,3.7,��
2019/06/19,08:00,0.745,1.063,0.730,1.331,0.966,0.433,0.748,0.706,�k,3.3,��
2019/06/19,08:10,0.745,1.062,0.727,1.330,0.964,0.431,0.750,0.705,�k,3.8,��
2019/06/19,08:20,0.747,1.059,0.730,1.331,0.965,0.432,0.748,0.706,�k,3.6,��
2019/06/19,08:30,0.744,1.065,0.728,1.332,0.965,0.430,0.749,0.708,�k�k��,3.3,��
2019/06/19,08:40,0.745,1.063,0.728,1.332,0.966,0.430,0.748,0.708,�k�k��,3.5,��
2019/06/19,08:50,0.746,1.061,0.729,1.330,0.966,0.431,0.749,0.707,�k�k��,3.3,��
2019/06/19,09:00,0.746,1.066,0.727,1.332,0.968,0.432,0.749,0.707,�k�k��,2.8,��
2019/06/19,09:10,0.747,1.063,0.728,1.333,0.968,0.431,0.751,0.707,�k�k��,2.6,��
2019/06/19,09:20,0.746,1.061,0.728,1.334,0.968,0.430,0.748,0.708,�k��,2.0,��
2019/06/19,09:30,0.748,1.062,0.728,1.333,0.970,0.431,0.750,0.708,���k��,2.0,��
2019/06/19,09:40,0.748,1.067,0.729,1.333,0.968,0.431,0.750,0.708,���k��,2.6,��
2019/06/19,09:50,0.749,1.063,0.727,1.331,0.970,0.430,0.751,0.707,��,2.3,��
2019/06/19,10:00,0.749,1.067,0.731,1.334,0.970,0.432,0.751,0.709,��,3.1,��
2019/06/19,10:10,0.748,1.071,0.727,1.334,0.969,0.432,0.749,0.708,��,2.0,��
2019/06/19,10:20,0.749,1.071,0.732,1.333,0.969,0.433,0.750,0.709,���쓌,2.6,��
2019/06/19,10:30,0.748,1.069,0.731,1.334,0.972,0.432,0.750,0.709,���쓌,2.6,��
2019/06/19,10:40,0.748,1.070,0.730,1.335,0.971,0.431,0.750,0.710,�쓌,2.9,��
2019/06/19,10:50,0.750,1.072,0.732,1.337,0.962,0.433,0.751,0.710,��쓌,3.1,��
2019/06/19,11:00,0.749,1.071,0.731,1.337,0.963,0.432,0.752,0.709,�쓌,1.7,��
2019/06/19,11:10,0.747,1.071,0.731,1.335,0.974,0.434,0.750,0.710,��쓌,2.6,��
2019/06/19,11:20,0.751,1.071,0.732,1.330,0.973,0.433,0.749,0.709,��쓌,4.1,��
2019/06/19,11:30,0.752,1.074,0.731,1.333,0.975,0.434,0.750,0.711,��쓌,4.7,��
2019/06/19,11:40,0.751,1.076,0.733,1.336,0.976,0.432,0.749,0.710,��쓌,4.3,��
2019/06/19,11:50,0.752,1.073,0.730,1.333,0.972,0.434,0.751,0.710,��쓌,3.3,��
2019/06/19,12:00,0.752,1.075,0.731,1.334,0.975,0.434,0.749,0.709,��쓌,4.4,��
2019/06/19,12:10,0.751,1.075,0.733,1.335,0.976,0.433,0.750,0.711,�쓌,3.2,��
2019/06/19,12:20,0.751,1.076,0.735,1.335,0.974,0.432,0.750,0.710,�쓌,4.0,��
2019/06/19,12:30,0.753,1.077,0.733,1.334,0.976,0.432,0.751,0.712,�쓌,4.1,��
2019/06/19,12:40,0.752,1.080,0.734,1.336,0.977,0.432,0.749,0.710,��쓌,5.6,��
2019/06/19,12:50,0.755,1.077,0.734,1.336,0.976,0.432,0.750,0.709,��쓌,3.6,��
2019/06/19,13:00,0.752,1.079,0.733,1.335,0.977,0.433,0.751,0.711,�쓌,2.6,��
2019/06/19,13:10,0.753,1.077,0.733,1.334,0.978,0.434,0.753,0.710,���k��,3.6,��
2019/06/19,13:20,0.754,1.078,0.733,1.334,0.976,0.434,0.751,0.710,���k��,3.7,��
2019/06/19,13:30,0.753,1.077,0.733,1.335,0.977,0.433,0.751,0.712,�k��,3.6,��
2019/06/19,13:40,0.754,1.076,0.734,1.336,0.978,0.432,0.751,0.710,�k�k��,6.0,��
2019/06/19,13:50,0.752,1.080,0.734,1.334,0.975,0.433,0.753,0.711,�k�k��,3.2,��
2019/06/19,14:00,0.752,1.083,0.733,1.335,0.976,0.433,0.751,0.711,�k�k��,4.4,��
2019/06/19,14:10,0.754,1.085,0.732,1.335,0.977,0.433,0.751,0.710,�k�k��,4.1,��
2019/06/19,14:20,0.752,1.085,0.733,1.337,0.976,0.434,0.752,0.711,�k,4.7,�L
2019/06/19,14:30,0.752,1.083,0.736,1.335,0.978,0.432,0.750,0.711,�k�k��,4.8,��
2019/06/19,14:40,0.751,1.085,0.734,1.335,0.978,0.432,0.751,0.711,�k�k��,4.8,�L
2019/06/19,14:50,0.751,1.084,0.731,1.337,0.977,0.432,0.749,0.711,�k,3.7,�L
2019/06/19,15:00,0.751,1.078,0.731,1.335,0.976,0.432,0.750,0.711,�k�k��,3.1,�L
2019/06/19,15:10,0.751,1.076,0.732,1.337,0.977,0.431,0.751,0.711,�k�k��,3.2,�L
2019/06/19,15:20,0.749,1.074,0.733,1.337,0.977,0.431,0.750,0.712,�k��,4.3,�L
2019/06/19,15:30,0.751,1.075,0.732,1.339,0.977,0.434,0.748,0.711,�k�k��,5.2,�L
2019/06/19,15:40,0.751,1.075,0.734,1.335,0.973,0.433,0.747,0.708,���k��,5.0,�L
2019/06/19,15:50,0.751,1.070,0.732,1.334,0.968,0.434,0.745,0.707,�k,4.2,�L
2019/06/19,16:00,0.751,1.069,0.732,1.332,0.965,0.435,0.745,0.708,�k�k��,4.0,�L
2019/06/19,16:10,0.753,1.070,0.732,1.333,0.968,0.435,0.747,0.706,�k�k��,3.0,�L
2019/06/19,16:20,0.750,1.067,0.733,1.333,0.968,0.434,0.746,0.706,�k�k��,3.6,�L
2019/06/19,16:30,0.748,1.069,0.731,1.330,0.966,0.433,0.746,0.706,�k�k��,2.0,�L
2019/06/19,16:40,0.750,1.068,0.734,1.331,0.965,0.435,0.745,0.706,�k�k��,3.1,�L
2019/06/19,16:50,0.752,1.070,0.733,1.332,0.966,0.434,0.745,0.705,�k�k��,4.3,�L
2019/06/19,17:00,0.757,1.067,0.732,1.332,0.964,0.433,0.745,0.707,�k�k��,4.7,�L
2019/06/19,17:10,0.754,1.068,0.731,1.329,0.964,0.433,0.744,0.706,�k�k��,3.4,��
2019/06/19,17:20,0.756,1.068,0.730,1.327,0.965,0.431,0.746,0.705,�k�k��,5.2,��
2019/06/19,17:30,0.753,1.068,0.731,1.327,0.962,0.431,0.743,0.705,�k�k��,5.6,��
2019/06/19,17:40,0.756,1.068,0.730,1.329,0.960,0.430,0.743,0.705,�k�k��,5.4,��
2019/06/19,17:50,0.753,1.067,0.730,1.329,0.961,0.431,0.745,0.705,�k,4.7,��
2019/06/19,18:00,0.755,1.065,0.730,1.329,0.962,0.430,0.744,0.702,�k�k��,4.0,��
2019/06/19,18:10,0.752,1.064,0.732,1.328,0.963,0.429,0.743,0.705,�k,5.8,��
2019/06/19,18:20,0.752,1.065,0.729,1.328,0.960,0.428,0.744,0.704,�k�k��,4.8,��
2019/06/19,18:30,0.753,1.066,0.730,1.329,0.961,0.428,0.743,0.704,�k,4.7,��
2019/06/19,18:40,0.752,1.065,0.729,1.328,0.961,0.428,0.744,0.703,�k�k��,5.3,��
2019/06/19,18:50,0.752,1.066,0.731,1.328,0.960,0.428,0.744,0.704,�k�k��,1.7,�L
2019/06/19,19:00,0.752,1.061,0.728,1.319,0.950,0.428,0.741,0.702,�k�k��,2.6,�L
2019/06/19,19:10,0.752,1.057,0.725,1.313,0.945,0.428,0.737,0.699,�k�k��,3.6,�L
2019/06/19,19:20,0.747,1.051,0.723,1.301,0.940,0.427,0.738,0.701,�k�k��,4.6,�L
2019/06/19,19:30,0.743,1.042,0.718,1.296,0.940,0.428,0.737,0.700,�k��,4.5,�L
2019/06/19,19:40,0.742,1.042,0.719,1.293,0.940,0.428,0.736,0.700,�k�k��,4.3,�L
2019/06/19,19:50,0.744,1.040,0.716,1.292,0.938,0.427,0.736,0.697,�k�k��,2.6,�L
2019/06/19,20:00,0.742,1.040,0.718,1.292,0.940,0.427,0.736,0.700,�k�k��,2.6,�L
2019/06/19,20:10,0.743,1.042,0.719,1.292,0.939,0.427,0.736,0.700,�k�k��,1.5,�L
2019/06/19,20:20,0.743,1.038,0.718,1.291,0.941,0.427,0.736,0.700,�k�k��,1.9,�L
2019/06/19,20:30,0.744,1.040,0.718,1.291,0.939,0.427,0.736,0.699,�k��,2.2,�L
2019/06/19,20:40,0.741,1.042,0.718,1.292,0.940,0.426,0.735,0.698,�k�k��,2.3,��
2019/06/19,20:50,0.742,1.040,0.717,1.290,0.939,0.427,0.736,0.698,�k��,2.2,��
2019/06/19,21:00,0.741,1.042,0.715,1.289,0.938,0.425,0.736,0.700,�k��,2.5,��
2019/06/19,21:10,0.741,1.041,0.715,1.288,0.939,0.426,0.735,0.701,�k�k��,0.9,��
2019/06/19,21:20,0.739,1.041,0.716,1.289,0.941,0.425,0.735,0.701,�k�k��,1.5,��
2019/06/19,21:30,0.741,1.041,0.716,1.290,0.938,0.426,0.736,0.702,�k��,1.2,��
2019/06/19,21:40,0.741,1.042,0.716,1.290,0.939,0.426,0.735,0.703,�k��,1.2,��
2019/06/19,21:50,0.739,1.041,0.714,1.291,0.941,0.424,0.738,0.701,�k�k��,2.0,��
2019/06/19,22:00,0.739,1.042,0.714,1.291,0.941,0.425,0.737,0.703,�k�k��,2.8,��
2019/06/19,22:10,0.738,1.041,0.714,1.290,0.939,0.425,0.736,0.700,�k�k��,3.2,��
2019/06/19,22:20,0.741,1.041,0.714,1.289,0.940,0.425,0.737,0.700,�k�k��,2.5,��
2019/06/19,22:30,0.739,1.040,0.715,1.290,0.940,0.424,0.737,0.701,�k�k��,1.7,��
2019/06/19,22:40,0.738,1.038,0.714,1.291,0.940,0.427,0.738,0.701,�k,2.9,��
2019/06/19,22:50,0.739,1.042,0.716,1.290,0.940,0.427,0.737,0.701,�k�k��,4.0,��
2019/06/19,23:00,0.740,1.042,0.714,1.289,0.941,0.426,0.738,0.701,�k�k��,3.0,��
2019/06/19,23:10,0.738,1.041,0.713,1.291,0.941,0.425,0.737,0.701,�k,3.2,��
2019/06/19,23:20,0.741,1.042,0.714,1.289,0.941,0.426,0.739,0.702,�k,3.4,��
2019/06/19,23:30,0.740,1.043,0.716,1.291,0.943,0.426,0.739,0.701,�k,3.0,��
2019/06/19,23:40,0.738,1.042,0.716,1.292,0.941,0.425,0.740,0.702,�k�k��,3.8,��
2019/06/19,23:50,0.740,1.040,0.715,1.293,0.941,0.425,0.739,0.701,�k�k��,4.4,��
